Карточка аэропорта UACK

Внимание!
Информация на этой странице в стадии наполнения.
Если вы не увидели какой-то информации, или заметили неточность - пожалуйста сообщите нам!
Спасибо!
Команда RU-STAFF
Название аэропортаКокшетау
Название аэропорта (англ.)Kokshetau
Превышение889 ft. (271 m.)
Координаты53°19.8', 69°35.802'
Высота перехода10000ft
Эшелон переходаFL120, QNH<733:FL130
Коды ответчика7264-7267
Зона ОрВДАстана РПИ (UACN)
Данные METARUACK 130600Z 10007MPS 070V130 CAVOK 29/17 Q1003 NOSIG RMK QFE729/0972
Проноз погоды (TAF)UACK 130502Z 1306/1315 10008MPS 9999 SCT040 BKN100 TEMPO 1306/1312 13009G14MPS
NOTAMshow/hide NOTAM
AWOS   TABLE

Информация о ВПП

ВПП Длина ВПП (м.) Покрытие Курс ВПП Частота ILS
022850Асфальтобетон21110.3
202850Асфальтобетон201109.5

Диспетчерские позиции




Спутниковое изображение